This demonstration page uses our WeatherBlox Daily Observations layout. Learn more.

Left ArrowRight Arrow

31.31129, -92.44514

Hourly Observations for October 7, 2015

Temp ( °F °C ) Dew Point ( °F °C ) Humidity (%) Winds ( mph kmh ) Pressure ( in mb ) Visibility ( mi km ) Precip ( " mm )
12:53 am 00:53 Clear 66 18.9 61 16.1 84 84 Calm 30.01 1016 8 13 0.00 0.00
1:53 am 01:53 Clear 63 17.2 60 15.6 90 90 NW 3 6 30.01 1016 7 11 0.00 0.00
2:53 am 02:53 Clear 62 16.7 59 15 90 90 NW 3 6 30.01 1016 8 13 0.00 0.00
3:53 am 03:53 Clear 63 17.2 61 16.1 93 93 Calm 30.00 1016 7 11 0.00 0.00
4:53 am 04:53 Clear with Mist and Fog 63 17.2 62 16.7 97 97 Calm 30.01 1016 5 8 0.00 0.00
5:02 am 05:02 Clear with Mist and Fog 62 16.7 62 16.7 100 100 Calm 30.00 1016 2 3 0.00 0.00
5:12 am 05:12 Clear with Fog 61 16.1 60 15.6 97 97 Calm 30.00 1016 1 1 0.00 0.00
5:20 am 05:20 Mostly Cloudy with Fog 61 16.1 60 15.6 97 97 Calm 30.00 1016 1 1 0.00 0.00
5:31 am 05:31 Mostly Cloudy with Fog 61 16.1 61 16.1 100 100 Calm 30.00 1016 0 0 0.00 0.00
5:53 am 05:53 Mostly Cloudy with Fog 60 15.6 60 15.6 100 100 Calm 30.02 1017 1 1 0.00 0.00
5:59 am 05:59 Partly Cloudy with Mist and Fog 61 16.1 60 15.6 97 97 Calm 30.03 1017 2 3 0.00 0.00
6:06 am 06:06 Mostly Clear with Mist and Fog 60 15.6 60 15.6 100 100 Calm 30.03 1017 6 10 0.00 0.00
6:53 am 06:53 Clear with Mist and Fog 61 16.1 59 15 93 93 Calm 30.04 1017 5 8 0.00 0.00
7:30 am 07:30 Partly Cloudy with Mist and Fog 60 15.6 58 14.4 93 93 Calm 30.03 1017 5 8 0.00 0.00
7:53 am 07:53 Sunny with Mist and Fog 63 17.2 60 15.6 90 90 Calm 30.06 1018 5 8 0.00 0.00
8:53 am 08:53 Sunny 71 21.7 64 17.8 79 79 Calm 30.07 1018 7 11 0.00 0.00
9:53 am 09:53 Sunny 78 25.6 63 17.2 60 60 NE 5 7 30.09 1019 8 13 0.00 0.00
10:53 am 10:53 Sunny 82 27.8 63 17.2 53 53 VRB 3 6 30.08 1019 8 13 0.00 0.00
11:53 am 11:53 Sunny 85 29.4 62 16.7 46 46 VRB 3 6 30.07 1018 10 16 0.00 0.00
12:53 pm 12:53 Partly Cloudy 86 30 61 16.1 43 43 VRB 5 7 30.06 1018 9 14 0.00 0.00
1:53 pm 13:53 Sunny 89 31.7 60 15.6 38 38 undefined N/A 30.03 1017 10 16 0.00 0.00
2:53 pm 14:53 Mostly Sunny 90 32.2 59 15 35 35 N 6 9 30.00 1016 10 16 0.00 0.00
3:53 pm 15:53 Sunny 90 32.2 59 15 35 35 NE 6 9 29.98 1015 10 16 0.00 0.00
4:53 pm 16:53 Mostly Sunny 89 31.7 58 14.4 35 35 ENE 3 6 29.98 1015 10 16 0.00 0.00
5:53 pm 17:53 Partly Cloudy 89 31.7 59 15 36 36 N 3 6 29.97 1015 10 16 0.00 0.00
6:53 pm 18:53 Clear 79 26.1 64 17.8 60 60 N 3 6 29.98 1015 9 14 0.00 0.00
7:53 pm 19:53 Mostly Cloudy 76 24.4 64 17.8 67 67 SE 3 6 29.99 1016 10 16 0.00 0.00
8:53 pm 20:53 Clear 74 23.3 64 17.8 71 71 Calm 30.00 1016 9 14 0.00 0.00
9:53 pm 21:53 Clear 76 24.4 63 17.2 64 64 NE 6 9 30.01 1016 9 14 0.00 0.00
10:53 pm 22:53 Clear 71 21.7 64 17.8 79 79 Calm 30.02 1017 9 14 0.00 0.00
11:53 pm 23:53 Clear 69 20.6 64 17.8 84 84 Calm 30.01 1016 8 13 0.00 0.00

Powered by AerisWeather